829  
ASUS42 KKEY 241210  
RWRKEY  
 
FLORIDA REGIONAL WEATHER ROUNDUP FOR THE FLORIDA KEYS  
NATIONAL WEATHER SERVICE KEY WEST FLORIDA  
800 AM EDT FRI OCT 24 2014  
   
..SOUTH FLORIDA AND THE KEYS
 
 
 
CITY SKY/WX TMP DP RH WIND PRES REMARKS
 
FORT MYERS CLEAR 63 59 87 NE9 29.91R  
SW REGIONAL AP CLEAR 64 58 80 NE7 29.91R  
NAPLES CLEAR 70 60 70 NE9 29.88R  
MIAMI CLOUDY 75 72 90 NE10G21 29.85R  
WEST KENDALL CLOUDY 76 72 87 NE12 29.84S  
HOMESTEAD HVY RAIN 75 73 94 NE16 29.83R FOG  
MARATHON RAIN 75 50 41 NE13 29.83R  
BOCA CHICA NAS MOCLDY 75 72 90 NE16 29.82R  
KEY WEST INTL MOCLDY 77 74 90 NE12G20 29.83R  
   
..INTERNATIONAL WEATHER
 
 
 
CITY SKY/WX TMP DP RH WIND PRES REMARKS
 
NASSAU BAHAMAS LGT RAIN 75 75 100 E10 29.85S  
CANCUN MEXICO MOCLDY 73 73 100 NW6 29.83R  
COZUMEL MEXICO CLOUDY 72 72 100 CALM 29.82R  
 
ADJACENT COASTAL WATERS...  
 
STATION/POSITION TIME SKY/WX TEMP WIND PRES WAVE
 
AIR SEA DIR/SP/G HT/PER  
(UTC) (F) (DEG/KT/KT) (MB) (FT/S)  
PULASKI SHOAL LI 1100 79 60/ 22/ 25 1010.0R  
SAND KEY 1138 77 40/ 19/ 23 1009.7R  
SOMBRERO KEY 1200 75 30/ 17/ 19 1010.3R  
LONG KEY 1055 76 78 20/ 16/ 18 1010.1R  
MOLASSES REEF 1200 76 82 30/ 14/ 15 1009.4R  
FOWEY ROCKS 1200 78 81 40/ 25/ 26 1010.1R  
BUOY 42080 NOT AVBL  
 

 
 
CLICK HERE TO GO TO PREVIOUS BULLETINS.

The Nexlab FL Page Main Text Page